Orbital Elements at Epoch 2459200.5 (2020-Dec-17.0) TDB
Reference: JPL 17 (heliocentric ecliptic J2000)
Element | Value | Uncertainty (1-sigma) | Units |
e | .09480876838707229 | 2.9171e-08 | |
a | 2.419501793840289 | 1.1133e-08 | au |
q | 2.190111808655979 | 6.9774e-08 | au |
i | 5.49488896998431 | 6.2327e-06 | deg |
node | 189.0477629366634 | 3.2708e-05 | deg |
peri | 76.42198601884984 | 4.7251e-05 | deg |
M | 110.7348085945351 | 3.2907e-05 | deg |
tp | 2458777.666869931017 (2019-Oct-21.16686993) | 0.00012575 | TDB |
period | 1374.634848398935 3.76 | 9.488e-06 2.598e-08 | d yr |
n | .2618877299810196 | 1.8076e-09 | deg/d |
Q | 2.648891779024598 | 1.2189e-08 | au |
|
| | Orbit Determination Parameters
Additional Information
|